TimeCST,TemperatureF,Dew PointF,Humidity,Sea Level PressureIn,VisibilityMPH,Wind Direction,Wind SpeedMPH,Gust SpeedMPH,PrecipitationIn,Events,Conditions,WindDirDegrees,DateUTC
12:07 AM,33.8,28.4,81,29.88,10.0,WSW,19.6,26.5,N/A,,Overcast,250,2007-01-01 06:07:00
12:27 AM,33.8,26.6,75,29.89,10.0,West,20.7,34.5,N/A,,Overcast,260,2007-01-01 06:27:00
12:47 AM,33.8,28.4,81,29.89,10.0,West,18.4,31.1,N/A,,Overcast,260,2007-01-01 06:47:00
1:07 AM,33.8,28.4,81,29.90,10.0,WSW,19.6,29.9,N/A,,Overcast,250,2007-01-01 07:07:00
1:27 AM,33.8,28.4,81,29.91,10.0,West,16.1,25.3,N/A,,Overcast,260,2007-01-01 07:27:00
1:46 AM,33.8,28.4,81,29.91,10.0,West,15.0,27.6,N/A,,Overcast,260,2007-01-01 07:46:00
2:07 AM,33.8,28.4,81,29.91,10.0,West,18.4,23.0,N/A,,Overcast,270,2007-01-01 08:07:00
2:27 AM,33.8,28.4,81,29.92,10.0,West,16.1,20.7,N/A,,Overcast,260,2007-01-01 08:27:00
2:46 AM,33.8,28.4,81,29.92,10.0,West,15.0,23.0,N/A,,Overcast,260,2007-01-01 08:46:00
3:07 AM,33.8,28.4,81,29.93,10.0,West,12.7,26.5,N/A,,Overcast,260,2007-01-01 09:07:00
3:27 AM,33.8,28.4,81,29.93,10.0,West,13.8,21.9,N/A,,Overcast,270,2007-01-01 09:27:00
3:47 AM,33.8,28.4,81,29.93,10.0,West,13.8,19.6,N/A,,Overcast,270,2007-01-01 09:47:00
4:07 AM,33.8,30.2,87,29.94,10.0,West,13.8,20.7,N/A,,Overcast,270,2007-01-01 10:07:00
4:27 AM,33.8,30.2,87,29.94,10.0,West,13.8,20.7,N/A,,Overcast,270,2007-01-01 10:27:00
4:48 AM,33.8,30.2,87,29.94,10.0,West,12.7,21.9,N/A,,Overcast,270,2007-01-01 10:48:00
5:07 AM,33.8,30.2,87,29.94,10.0,West,12.7,18.4,N/A,,Overcast,260,2007-01-01 11:07:00
5:27 AM,33.8,30.2,87,29.95,10.0,West,11.5,21.9,N/A,,Overcast,270,2007-01-01 11:27:00
5:47 AM,33.8,30.2,87,29.96,10.0,West,16.1,21.9,N/A,,Overcast,260,2007-01-01 11:47:00
6:07 AM,35.6,30.2,81,29.97,10.0,West,13.8,21.9,N/A,,Overcast,270,2007-01-01 12:07:00
6:26 AM,35.6,28.4,75,29.98,10.0,West,15.0,25.3,N/A,,Overcast,280,2007-01-01 12:26:00
6:47 AM,35.6,28.4,75,30.00,10.0,West,20.7,27.6,N/A,,Overcast,280,2007-01-01 12:47:00
7:06 AM,35.6,28.4,75,30.01,10.0,WNW,12.7,23.0,N/A,,Overcast,290,2007-01-01 13:06:00
7:26 AM,35.6,28.4,75,30.02,10.0,West,12.7,20.7,N/A,,Overcast,280,2007-01-01 13:26:00
7:46 AM,35.6,28.4,75,30.03,10.0,WNW,12.7,21.9,N/A,,Overcast,290,2007-01-01 13:46:00
8:06 AM,35.6,28.4,75,30.04,10.0,WNW,15.0,23.0,N/A,,Overcast,300,2007-01-01 14:06:00
8:26 AM,33.8,26.6,75,30.05,10.0,WNW,11.5,25.3,N/A,,Overcast,290,2007-01-01 14:26:00
8:48 AM,33.8,26.6,75,30.07,10.0,WNW,15.0,23.0,N/A,,Overcast,290,2007-01-01 14:48:00
9:07 AM,33.8,26.6,75,30.08,10.0,WNW,13.8,25.3,N/A,,Overcast,290,2007-01-01 15:07:00
9:26 AM,33.8,26.6,75,30.10,10.0,West,12.7,24.2,N/A,,Overcast,280,2007-01-01 15:26:00
9:48 AM,33.8,26.6,75,30.11,10.0,NW,17.3,24.2,N/A,,Mostly Cloudy,310,2007-01-01 15:48:00
10:06 AM,35.6,26.6,70,30.13,10.0,WNW,12.7,19.6,N/A,,Scattered Clouds,300,2007-01-01 16:06:00
10:26 AM,35.6,26.6,70,30.13,10.0,NW,13.8,19.6,N/A,,Clear,310,2007-01-01 16:26:00
10:46 AM,35.6,26.6,70,30.13,10.0,WNW,13.8,20.7,N/A,,Clear,300,2007-01-01 16:46:00
11:06 AM,35.6,26.6,70,30.13,10.0,WNW,13.8,18.4,N/A,,Clear,300,2007-01-01 17:06:00
11:26 AM,37.4,26.6,65,30.13,10.0,WNW,12.7,19.6,N/A,,Clear,300,2007-01-01 17:26:00
11:46 AM,37.4,26.6,65,30.14,10.0,NW,13.8,19.6,N/A,,Clear,310,2007-01-01 17:46:00
12:06 PM,37.4,26.6,65,30.14,10.0,NW,15.0,19.6,N/A,,Clear,310,2007-01-01 18:06:00
12:26 PM,39.2,26.6,61,30.15,10.0,WNW,12.7,-,N/A,,Clear,290,2007-01-01 18:26:00
12:46 PM,39.2,28.4,65,30.15,10.0,NW,12.7,21.9,N/A,,Clear,310,2007-01-01 18:46:00
1:06 PM,39.2,28.4,65,30.16,10.0,West,13.8,21.9,N/A,,Clear,280,2007-01-01 19:06:00
1:26 PM,41.0,28.4,61,30.16,10.0,NW,11.5,20.7,N/A,,Clear,310,2007-01-01 19:26:00
1:46 PM,42.8,28.4,57,30.17,10.0,WNW,10.4,17.3,N/A,,Clear,300,2007-01-01 19:46:00
2:06 PM,42.8,28.4,57,30.18,10.0,WNW,11.5,18.4,N/A,,Clear,300,2007-01-01 20:06:00
2:28 PM,42.8,28.4,57,30.19,10.0,WNW,11.5,17.3,N/A,,Clear,300,2007-01-01 20:28:00
2:46 PM,42.8,28.4,57,30.20,10.0,NW,12.7,-,N/A,,Clear,310,2007-01-01 20:46:00
3:06 PM,44.6,28.4,53,30.21,10.0,WNW,10.4,17.3,N/A,,Clear,300,2007-01-01 21:06:00
3:26 PM,44.6,28.4,53,30.22,10.0,WNW,10.4,-,N/A,,Clear,300,2007-01-01 21:26:00
3:46 PM,44.6,28.4,53,30.23,10.0,WNW,9.2,-,N/A,,Clear,290,2007-01-01 21:46:00
4:08 PM,42.8,28.4,57,30.24,10.0,WNW,8.1,-,N/A,,Clear,300,2007-01-01 22:08:00
4:27 PM,42.8,28.4,57,30.25,10.0,WNW,6.9,-,N/A,,Clear,300,2007-01-01 22:27:00
4:47 PM,42.8,28.4,57,30.26,10.0,WNW,6.9,-,N/A,,Clear,290,2007-01-01 22:47:00
5:08 PM,39.2,28.4,65,30.27,10.0,WNW,4.6,-,N/A,,Clear,300,2007-01-01 23:08:00
5:26 PM,39.2,28.4,65,30.28,10.0,WNW,3.5,-,N/A,,Clear,300,2007-01-01 23:26:00
5:47 PM,37.4,28.4,70,30.29,10.0,WNW,3.5,-,N/A,,Clear,290,2007-01-01 23:47:00
6:08 PM,37.4,28.4,70,30.30,10.0,Calm,Calm,-,N/A,,Clear,0,2007-01-02 00:08:00
6:26 PM,37.4,26.6,65,30.30,10.0,Calm,Calm,-,N/A,,Clear,0,2007-01-02 00:26:00
6:46 PM,37.4,26.6,65,30.32,10.0,Calm,Calm,-,N/A,,Clear,0,2007-01-02 00:46:00
7:06 PM,35.6,26.6,70,30.32,10.0,WNW,3.5,-,N/A,,Clear,300,2007-01-02 01:06:00
7:28 PM,35.6,26.6,70,30.32,10.0,WNW,3.5,-,N/A,,Clear,300,2007-01-02 01:28:00
7:46 PM,35.6,28.4,75,30.33,10.0,Calm,Calm,-,N/A,,Clear,0,2007-01-02 01:46:00
8:06 PM,33.8,26.6,75,30.33,10.0,NW,3.5,-,N/A,,Clear,310,2007-01-02 02:06:00
8:26 PM,33.8,26.6,75,30.33,10.0,Calm,Calm,-,N/A,,Clear,0,2007-01-02 02:26:00
8:46 PM,32.0,26.6,80,30.33,10.0,Calm,Calm,-,N/A,,Clear,0,2007-01-02 02:46:00
9:07 PM,32.0,28.4,87,30.34,10.0,Calm,Calm,-,N/A,,Clear,0,2007-01-02 03:07:00
9:27 PM,32.0,26.6,80,30.35,10.0,Calm,Calm,-,N/A,,Clear,0,2007-01-02 03:27:00
9:47 PM,30.2,26.6,86,30.35,10.0,Calm,Calm,-,N/A,,Clear,0,2007-01-02 03:47:00
10:07 PM,30.2,26.6,86,30.36,10.0,WNW,3.5,-,N/A,,Clear,290,2007-01-02 04:07:00
10:27 PM,30.2,26.6,86,30.36,10.0,NW,4.6,-,N/A,,Clear,320,2007-01-02 04:27:00
10:47 PM,30.2,26.6,86,30.36,10.0,WNW,3.5,-,N/A,,Clear,300,2007-01-02 04:47:00
11:07 PM,30.2,26.6,86,30.36,10.0,Calm,Calm,-,N/A,,Clear,0,2007-01-02 05:07:00
11:27 PM,28.4,26.6,93,30.36,10.0,WNW,3.5,-,N/A,,Clear,290,2007-01-02 05:27:00
11:47 PM,28.4,26.6,93,30.36,10.0,West,3.5,-,N/A,,Clear,280,2007-01-02 05:47:00